Time,TemperatureF,DewpointF,PressureIn,WindDirection,WindDirectionDegrees,WindSpeedMPH,WindSpeedGustMPH,Humidity,HourlyPrecipIn,Conditions,Clouds,dailyrainin,SolarRadiationWatts/m^2,SoftwareType,DateUTC
2013-05-02 00:01:00,45.0,38.0,-100.00,ENE,78,3.0,5.0,77,0.00,,,0.00,0.000000,,2013-05-02 04:01:00,
2013-05-02 00:23:00,45.0,38.0,-100.00,ENE,78,3.0,5.0,77,0.00,,,0.00,0.000000,,2013-05-02 04:23:00,
2013-05-02 00:33:00,45.0,38.0,-100.00,ENE,78,3.0,5.0,77,0.00,,,0.00,0.000000,,2013-05-02 04:33:00,
2013-05-02 00:43:00,45.0,38.0,-100.00,ENE,78,3.0,5.0,77,0.00,,,0.00,0.000000,,2013-05-02 04:43:00,
2013-05-02 00:52:00,45.0,38.0,-100.00,ENE,78,3.0,5.0,77,0.00,,,0.00,0.000000,,2013-05-02 04:52:00,
2013-05-02 01:01:00,43.0,38.0,-100.00,SE,124,1.0,4.0,81,0.00,,,0.00,0.000000,,2013-05-02 05:01:00,
2013-05-02 01:32:00,43.0,38.0,-100.00,SE,124,1.0,4.0,81,0.00,,,0.00,0.000000,,2013-05-02 05:32:00,
2013-05-02 01:42:00,43.0,38.0,-100.00,SE,124,1.0,4.0,81,0.00,,,0.00,0.000000,,2013-05-02 05:42:00,
2013-05-02 01:52:00,43.0,38.0,-100.00,SE,124,1.0,4.0,81,0.00,,,0.00,0.000000,,2013-05-02 05:52:00,
2013-05-02 02:01:00,40.0,36.0,-100.00,East,101,1.0,4.0,85,0.00,,,0.00,0.000000,,2013-05-02 06:01:00,
2013-05-02 02:32:00,40.0,36.0,-100.00,East,101,1.0,4.0,85,0.00,,,0.00,0.000000,,2013-05-02 06:32:00,
2013-05-02 02:42:00,40.0,36.0,-100.00,East,101,1.0,4.0,85,0.00,,,0.00,0.000000,,2013-05-02 06:42:00,
2013-05-02 02:52:00,40.0,36.0,-100.00,East,101,1.0,4.0,85,0.00,,,0.00,0.000000,,2013-05-02 06:52:00,
2013-05-02 03:01:00,38.0,35.0,-100.00,ESE,122,1.0,4.0,88,0.00,,,0.00,0.000000,,2013-05-02 07:01:00,
2013-05-02 03:22:00,38.0,35.0,-100.00,ESE,122,1.0,4.0,88,0.00,,,0.00,0.000000,,2013-05-02 07:22:00,
2013-05-02 03:32:00,38.0,35.0,-100.00,ESE,122,1.0,4.0,88,0.00,,,0.00,0.000000,,2013-05-02 07:32:00,
2013-05-02 03:42:00,38.0,35.0,-100.00,ESE,122,1.0,4.0,88,0.00,,,0.00,0.000000,,2013-05-02 07:42:00,
2013-05-02 03:52:00,38.0,35.0,-100.00,ESE,122,1.0,4.0,88,0.00,,,0.00,0.000000,,2013-05-02 07:52:00,
2013-05-02 04:01:00,38.0,34.0,-100.00,ESE,110,2.0,6.0,87,0.00,,,0.00,0.000000,,2013-05-02 08:01:00,
2013-05-02 04:32:00,38.0,34.0,-100.00,ESE,110,2.0,6.0,87,0.00,,,0.00,0.000000,,2013-05-02 08:32:00,
2013-05-02 04:42:00,38.0,34.0,-100.00,ESE,110,2.0,6.0,87,0.00,,,0.00,0.000000,,2013-05-02 08:42:00,
2013-05-02 04:52:00,38.0,34.0,-100.00,ESE,110,2.0,6.0,87,0.00,,,0.00,0.000000,,2013-05-02 08:52:00,
2013-05-02 05:01:00,36.0,33.0,-100.00,East,99,1.0,4.0,88,0.00,,,0.00,0.000000,,2013-05-02 09:01:00,
2013-05-02 05:22:00,36.0,33.0,-100.00,East,99,1.0,4.0,88,0.00,,,0.00,0.000000,,2013-05-02 09:22:00,
2013-05-02 05:33:00,36.0,33.0,-100.00,East,99,1.0,4.0,88,0.00,,,0.00,0.000000,,2013-05-02 09:33:00,
2013-05-02 05:43:00,36.0,33.0,-100.00,East,99,1.0,4.0,88,0.00,,,0.00,0.000000,,2013-05-02 09:43:00,
2013-05-02 05:52:00,36.0,33.0,-100.00,East,99,1.0,4.0,88,0.00,,,0.00,0.000000,,2013-05-02 09:52:00,
2013-05-02 06:01:00,35.0,33.0,-100.00,ESE,120,3.0,5.0,91,0.00,,,0.00,2.000000,,2013-05-02 10:01:00,
2013-05-02 06:23:00,35.0,33.0,-100.00,ESE,120,3.0,5.0,91,0.00,,,0.00,2.000000,,2013-05-02 10:23:00,
2013-05-02 06:33:00,35.0,33.0,-100.00,ESE,120,3.0,5.0,91,0.00,,,0.00,2.000000,,2013-05-02 10:33:00,
2013-05-02 06:42:00,35.0,33.0,-100.00,ESE,120,3.0,5.0,91,0.00,,,0.00,2.000000,,2013-05-02 10:42:00,
2013-05-02 06:53:00,35.0,33.0,-100.00,ESE,120,3.0,5.0,91,0.00,,,0.00,2.000000,,2013-05-02 10:53:00,
2013-05-02 07:01:00,41.0,36.0,-100.00,East,101,2.0,4.0,83,0.00,,,0.00,56.000000,,2013-05-02 11:01:00,
2013-05-02 07:32:00,41.0,36.0,-100.00,East,101,2.0,4.0,83,0.00,,,0.00,56.000000,,2013-05-02 11:32:00,
2013-05-02 07:42:00,41.0,36.0,-100.00,East,101,2.0,4.0,83,0.00,,,0.00,56.000000,,2013-05-02 11:42:00,
2013-05-02 07:52:00,41.0,36.0,-100.00,East,101,2.0,4.0,83,0.00,,,0.00,56.000000,,2013-05-02 11:52:00,
2013-05-02 08:01:00,58.0,44.0,-100.00,NW,316,0.0,3.0,59,0.00,,,0.00,195.000000,,2013-05-02 12:01:00,
2013-05-02 08:22:00,58.0,44.0,-100.00,NW,316,0.0,3.0,59,0.00,,,0.00,195.000000,,2013-05-02 12:22:00,
2013-05-02 08:32:00,58.0,44.0,-100.00,NW,316,0.0,3.0,59,0.00,,,0.00,195.000000,,2013-05-02 12:32:00,
2013-05-02 08:42:00,58.0,44.0,-100.00,NW,316,0.0,3.0,59,0.00,,,0.00,195.000000,,2013-05-02 12:42:00,
2013-05-02 08:52:00,58.0,44.0,-100.00,NW,316,0.0,3.0,59,0.00,,,0.00,195.000000,,2013-05-02 12:52:00,
2013-05-02 09:01:00,67.0,30.0,-100.00,North,6,1.0,4.0,25,0.00,,,0.00,368.000000,,2013-05-02 13:01:00,
2013-05-02 09:32:00,67.0,30.0,-100.00,North,6,1.0,4.0,25,0.00,,,0.00,368.000000,,2013-05-02 13:32:00,
2013-05-02 09:42:00,67.0,30.0,-100.00,North,6,1.0,4.0,25,0.00,,,0.00,368.000000,,2013-05-02 13:42:00,
2013-05-02 09:52:00,67.0,30.0,-100.00,North,6,1.0,4.0,25,0.00,,,0.00,368.000000,,2013-05-02 13:52:00,
2013-05-02 10:01:00,70.0,28.0,-100.00,West,277,2.0,7.0,21,0.00,,,0.00,534.000000,,2013-05-02 14:01:00,
2013-05-02 10:32:00,70.0,28.0,-100.00,West,277,2.0,7.0,21,0.00,,,0.00,534.000000,,2013-05-02 14:32:00,
2013-05-02 10:43:00,70.0,28.0,-100.00,West,277,2.0,7.0,21,0.00,,,0.00,534.000000,,2013-05-02 14:43:00,
2013-05-02 10:52:00,70.0,28.0,-100.00,West,277,2.0,7.0,21,0.00,,,0.00,534.000000,,2013-05-02 14:52:00,
2013-05-02 11:01:00,72.0,31.0,-100.00,WNW,298,4.0,8.0,22,0.00,,,0.00,665.000000,,2013-05-02 15:01:00,
2013-05-02 11:33:00,72.0,31.0,-100.00,WNW,298,4.0,8.0,22,0.00,,,0.00,665.000000,,2013-05-02 15:33:00,
2013-05-02 11:43:00,72.0,31.0,-100.00,WNW,298,4.0,8.0,22,0.00,,,0.00,665.000000,,2013-05-02 15:43:00,
2013-05-02 12:01:00,74.0,32.0,-100.00,ENE,74,2.0,9.0,21,0.00,,,0.00,740.000000,,2013-05-02 16:01:00,
2013-05-02 12:32:00,74.0,32.0,-100.00,ENE,74,2.0,9.0,21,0.00,,,0.00,740.000000,,2013-05-02 16:32:00,
2013-05-02 12:43:00,74.0,32.0,-100.00,ENE,74,2.0,9.0,21,0.00,,,0.00,740.000000,,2013-05-02 16:43:00,
2013-05-02 12:52:00,74.0,32.0,-100.00,ENE,74,2.0,9.0,21,0.00,,,0.00,740.000000,,2013-05-02 16:52:00,
2013-05-02 13:01:00,76.0,34.0,-100.00,West,281,4.0,12.0,22,0.00,,,0.00,743.000000,,2013-05-02 17:01:00,
2013-05-02 13:32:00,76.0,34.0,-100.00,West,281,4.0,12.0,22,0.00,,,0.00,743.000000,,2013-05-02 17:32:00,
2013-05-02 13:42:00,76.0,34.0,-100.00,West,281,4.0,12.0,22,0.00,,,0.00,743.000000,,2013-05-02 17:42:00,
2013-05-02 13:52:00,76.0,34.0,-100.00,West,281,4.0,12.0,22,0.00,,,0.00,743.000000,,2013-05-02 17:52:00,
2013-05-02 14:01:00,75.0,34.0,-100.00,NE,38,6.0,16.0,22,0.00,,,0.00,538.000000,,2013-05-02 18:01:00,
2013-05-02 14:32:00,75.0,34.0,-100.00,NE,38,6.0,16.0,22,0.00,,,0.00,538.000000,,2013-05-02 18:32:00,
2013-05-02 14:42:00,75.0,34.0,-100.00,NE,38,6.0,16.0,22,0.00,,,0.00,538.000000,,2013-05-02 18:42:00,
2013-05-02 14:52:00,75.0,34.0,-100.00,NE,38,6.0,16.0,22,0.00,,,0.00,538.000000,,2013-05-02 18:52:00,
2013-05-02 15:01:00,76.0,34.0,-100.00,ENE,61,6.0,14.0,22,0.00,,,0.00,676.000000,,2013-05-02 19:01:00,
2013-05-02 15:22:00,76.0,34.0,-100.00,ENE,61,6.0,14.0,22,0.00,,,0.00,676.000000,,2013-05-02 19:22:00,
2013-05-02 15:32:00,76.0,34.0,-100.00,ENE,61,6.0,14.0,22,0.00,,,0.00,676.000000,,2013-05-02 19:32:00,
2013-05-02 15:42:00,76.0,34.0,-100.00,ENE,61,6.0,14.0,22,0.00,,,0.00,676.000000,,2013-05-02 19:42:00,
2013-05-02 15:52:00,76.0,34.0,-100.00,ENE,61,6.0,14.0,22,0.00,,,0.00,676.000000,,2013-05-02 19:52:00,
2013-05-02 16:01:00,76.0,36.0,-100.00,NNE,22,5.0,13.0,23,0.00,,,0.00,603.000000,,2013-05-02 20:01:00,
2013-05-02 16:32:00,76.0,36.0,-100.00,NNE,22,5.0,13.0,23,0.00,,,0.00,603.000000,,2013-05-02 20:32:00,
2013-05-02 16:42:00,76.0,36.0,-100.00,NNE,22,5.0,13.0,23,0.00,,,0.00,603.000000,,2013-05-02 20:42:00,
2013-05-02 16:52:00,76.0,36.0,-100.00,NNE,22,5.0,13.0,23,0.00,,,0.00,603.000000,,2013-05-02 20:52:00,
2013-05-02 17:01:00,76.0,34.0,-100.00,NE,44,6.0,12.0,22,0.00,,,0.00,515.000000,,2013-05-02 21:01:00,
2013-05-02 17:21:00,76.0,34.0,-100.00,NE,44,6.0,12.0,22,0.00,,,0.00,515.000000,,2013-05-02 21:21:00,
2013-05-02 17:33:00,76.0,34.0,-100.00,NE,44,6.0,12.0,22,0.00,,,0.00,515.000000,,2013-05-02 21:33:00,
2013-05-02 17:42:00,76.0,34.0,-100.00,NE,44,6.0,12.0,22,0.00,,,0.00,515.000000,,2013-05-02 21:42:00,
2013-05-02 17:53:00,76.0,34.0,-100.00,NE,44,6.0,12.0,22,0.00,,,0.00,515.000000,,2013-05-02 21:53:00,
2013-05-02 18:01:00,74.0,37.0,-100.00,NE,44,7.0,16.0,26,0.00,,,0.00,355.000000,,2013-05-02 22:01:00,
2013-05-02 18:33:00,74.0,37.0,-100.00,NE,44,7.0,16.0,26,0.00,,,0.00,355.000000,,2013-05-02 22:33:00,
2013-05-02 18:42:00,74.0,37.0,-100.00,NE,44,7.0,16.0,26,0.00,,,0.00,355.000000,,2013-05-02 22:42:00,
2013-05-02 18:53:00,74.0,37.0,-100.00,NE,44,7.0,16.0,26,0.00,,,0.00,355.000000,,2013-05-02 22:53:00,
2013-05-02 19:01:00,70.0,37.0,-100.00,ENE,58,8.0,16.0,30,0.00,,,0.00,148.000000,,2013-05-02 23:01:00,
2013-05-02 19:22:00,70.0,37.0,-100.00,ENE,58,8.0,16.0,30,0.00,,,0.00,148.000000,,2013-05-02 23:22:00,
2013-05-02 19:32:00,70.0,37.0,-100.00,ENE,58,8.0,16.0,30,0.00,,,0.00,148.000000,,2013-05-02 23:32:00,
2013-05-02 19:42:00,70.0,37.0,-100.00,ENE,58,8.0,16.0,30,0.00,,,0.00,148.000000,,2013-05-02 23:42:00,
2013-05-02 19:52:00,70.0,37.0,-100.00,ENE,58,8.0,16.0,30,0.00,,,0.00,148.000000,,2013-05-02 23:52:00,
2013-05-02 20:01:00,67.0,38.0,-100.00,ENE,61,8.0,19.0,34,0.00,,,0.00,15.000000,,2013-05-03 00:01:00,
2013-05-02 20:22:00,67.0,38.0,-100.00,ENE,61,8.0,19.0,34,0.00,,,0.00,15.000000,,2013-05-03 00:22:00,
2013-05-02 20:32:00,67.0,38.0,-100.00,ENE,61,8.0,19.0,34,0.00,,,0.00,15.000000,,2013-05-03 00:32:00,
2013-05-02 20:42:00,67.0,38.0,-100.00,ENE,61,8.0,19.0,34,0.00,,,0.00,15.000000,,2013-05-03 00:42:00,
2013-05-02 20:52:00,67.0,38.0,-100.00,ENE,61,8.0,19.0,34,0.00,,,0.00,15.000000,,2013-05-03 00:52:00,
2013-05-02 21:01:00,66.0,40.0,-100.00,East,86,5.0,14.0,38,0.00,,,0.00,0.000000,,2013-05-03 01:01:00,
2013-05-02 21:21:00,66.0,40.0,-100.00,East,86,5.0,14.0,38,0.00,,,0.00,0.000000,,2013-05-03 01:21:00,
2013-05-02 21:32:00,66.0,40.0,-100.00,East,86,5.0,14.0,38,0.00,,,0.00,0.000000,,2013-05-03 01:32:00,
2013-05-02 21:42:00,66.0,40.0,-100.00,East,86,5.0,14.0,38,0.00,,,0.00,0.000000,,2013-05-03 01:42:00,
2013-05-02 21:52:00,66.0,40.0,-100.00,East,86,5.0,14.0,38,0.00,,,0.00,0.000000,,2013-05-03 01:52:00,
2013-05-02 22:01:00,64.0,43.0,-100.00,East,80,2.0,11.0,47,0.00,,,0.00,0.000000,,2013-05-03 02:01:00,
2013-05-02 22:22:00,64.0,43.0,-100.00,East,80,2.0,11.0,47,0.00,,,0.00,0.000000,,2013-05-03 02:22:00,
2013-05-02 22:32:00,64.0,43.0,-100.00,East,80,2.0,11.0,47,0.00,,,0.00,0.000000,,2013-05-03 02:32:00,
2013-05-02 22:42:00,64.0,43.0,-100.00,East,80,2.0,11.0,47,0.00,,,0.00,0.000000,,2013-05-03 02:42:00,
2013-05-02 22:52:00,64.0,43.0,-100.00,East,80,2.0,11.0,47,0.00,,,0.00,0.000000,,2013-05-03 02:52:00,
2013-05-02 23:01:00,61.0,40.0,-100.00,ESE,105,2.0,10.0,46,0.00,,,0.00,0.000000,,2013-05-03 03:01:00,
2013-05-02 23:21:00,61.0,40.0,-100.00,ESE,105,2.0,10.0,46,0.00,,,0.00,0.000000,,2013-05-03 03:21:00,
2013-05-02 23:33:00,61.0,40.0,-100.00,ESE,105,2.0,10.0,46,0.00,,,0.00,0.000000,,2013-05-03 03:33:00,
2013-05-02 23:43:00,61.0,40.0,-100.00,ESE,105,2.0,10.0,46,0.00,,,0.00,0.000000,,2013-05-03 03:43:00,
2013-05-02 23:53:00,61.0,40.0,-100.00,ESE,105,2.0,10.0,46,0.00,,,0.00,0.000000,,2013-05-03 03:53:00,